Location: Bottens
(46.6171°N, 6.6605°E)
Time: 14:29:55
(UTC+00:00)

Cosmos 1825 - Pass Details

Date: 27 October 2021
Orbit: 501 x 504 km, 82.5° (Epoch: 04 December)

Event Time Altitude Azimuth Distance (km) Brightness Sun altitude
Rises 18:33:47 0° 347° (NNW) 2,610 6.0 -22.5°
Reaches altitude 10° 18:35:55 10° 345° (NNW) 1,721 5.1 -22.9°
Maximum altitude 18:39:38 63° 264° (W) 568 2.5 -23.6°
Enters shadow 18:40:12 54° 220° (SW) 619 2.6 -23.6°
